Miscellaneous Local Product
Issued by NWS North Platte, NE

Home | Current Version | Previous Version | Graphics & Text | Print | Product List | Glossary On
Versions: 1 2 3 4 5 6 7 8 9 10 11 12 13 14 15 16 17 18 19 20 21 22 23 24 25 26 27 28 29 30 31 32 33 34 35 36 37 38 39 40 41 42 43 44 45 46 47 48 49 50
998
AXUS43 KLBF 251710
MISLBF


WESTERN AND NORTH CENTRAL NEBRASKA HOURLY WEATHER ROUNDUP
NATIONAL WEATHER SERVICE NORTH PLATTE NE
1200 PM CDT WED MAY 25 2016

NOTE: "FAIR" INDICATES FEW OR NO CLOUDS BELOW 12,000 FEET WITH NO
SIGNIFICANT WEATHER AND/OR OBSTRUCTIONS TO VISIBILITY.

NOTE: STATIONS NOT REPORTING VARIABLES SUCH AS SKY/WEATHER OR
PRESSURE ARE PROVIDED BY RAWS AND APRS NETWORKS AND ARE NOT UNDER
NATIONAL WEATHER SERVICE QUALITY CONTROL.

...OBSERVATIONS IN AND NEAR THE EASTERN PANHANDLE OF NEBRASKA...

CITY           SKY/WX    TMP DP  RH WIND       PRES   REMARKS
PINE RIDGE     SUNNY     65  49  56 W14G21    29.89S
CHADRON        SUNNY     68  47  46 W15       29.90R
ALLIANCE       SUNNY     69  44  40 W18       29.92R
SIDNEY         SUNNY     68  53  58 S14       29.97S
BIG SPRINGS      N/A     63  58  83 SW7         N/A
$$

...OBSERVATIONS IN NORTHERN NEBRASKA AND FAR SOUTHERN SOUTH DAKOTA...

CITY           SKY/WX    TMP DP  RH WIND       PRES   REMARKS
WINNER         FAIR      69  59  70 W12       29.82S
VALENTINE      SUNNY     69  55  60 W16       29.85S
THEDFORD       MOSUNNY   72  57  59 SW17G23   29.90S
AINSWORTH      SUNNY     71  57  61 W13       29.85S
O`NEILL        SUNNY     76  56  49 SW13      29.84S
ORD            SUNNY     73  60  63 SW12      29.86R
BROKEN BOW     SUNNY     71  59  65 S10       29.89R
VALENTINE NWR    N/A     68  57  68 W13         N/A
BUTTE            N/A     68  61  77 SW10G17     N/A
EWING            N/A     72  64  74 SW9         N/A
$$

...OBSERVATIONS IN SOUTHWEST NEBRASKA AND FAR NORTHEAST COLORADO...

CITY           SKY/WX    TMP DP  RH WIND       PRES   REMARKS
WRAY           PTSUNNY   70  54  56 SE5       29.96S
HOLYOKE        FAIR      72  54  53 S7        29.96S
IMPERIAL       MOSUNNY   68  55  63 S5        29.94R
OGALLALA       SUNNY     67  56  66 SW8       29.93F
NORTH PLATTE   SUNNY     72  54  53 SW5       29.90F
MCCOOK         SUNNY     74  57  55 VRB3      29.89S
LEXINGTON      SUNNY     72  58  62 SE8       29.89S
PAXTON           N/A     65  59  80 SW6         N/A
STAPLETON        N/A     72  59  62 CALM        N/A
GOTHENBURG       N/A     68  55  62 S6          N/A
CALLAWAY         N/A     69  60  74 S10         N/A
$$

...OBSERVATIONS IN CENTRAL LINCOLN COUNTY AREA...

CITY           SKY/WX    TMP DP  RH WIND       PRES   REMARKS
N.P. AIRPORT   SUNNY     72  54  53 SW5       29.90F
N.P. DOWNTOWN    N/A     69  59  69 CALM        N/A
N.P. HILLCREST   N/A     67  59  75 W8          N/A
$$

...SOME OBSERVATIONS FROM AROUND THE REGION...

CITY           SKY/WX    TMP DP  RH WIND       PRES   REMARKS
DENVER         MOSUNNY   64  43  46 E12       30.02F
LARAMIE        CLOUDY    57  21  24 W25G35    30.03S
CHEYENNE       PTSUNNY   61  31  32 SW17G23   30.01S
SCOTTSBLUFF    SUNNY     68  42  38 W9        29.94S
RAPID CITY     PTSUNNY   66  52  60 E7        29.84S
BISMARCK       CLOUDY    61  58  90 E10       29.79F
PIERRE         MOSUNNY   69  57  65 W15       29.77F
SIOUX FALLS    MOSUNNY   71  60  68 SW8       29.82R
OMAHA          CLOUDY    71  61  70 S13       29.83F
GRAND ISLAND   SUNNY     74  60  61 S10       29.86R
KANSAS CITY    CLOUDY    73  61  65 NE9       29.96R
WICHITA        CLOUDY    78  70  76 S24G33    29.84S
OKLAHOMA CITY  MOSUNNY   83  72  69 S22       29.89S
DALLAS         CLOUDY    83  72  69 S17       29.96S
AMARILLO       SUNNY     84  28  13 NW6       30.00R
DODGE CITY     SUNNY     73  64  73 W12       29.86R
HAYS           CLOUDY    59  57  94 NE13      29.85S
GOODLAND       CLOUDY    64  55  72 CALM      29.94R
$$




USA.gov is the U.S. government's official web portal to all federal, state and local government web resources and services.